Flag for U.S.A. Weather past 2 weeks in Tacoma, Washington, U.S.A.

Now
61 °F

Overcast.


Feels Like: 61 °F
Forecast: 49 / 63 °F
Wind: 8 mph from Southwest

Location: Tacoma Narrows Airport

Current Time: Mar 29, 2015 at 5:02:14 PM

Latest Report: Mar 29, 2015 at 3:53 PM


Visibility: 10 mi

Pressure: 30.20 "Hg

Humidity: 52%

Dew point: 43 °F

Location of TacomaLocation

Historic Weather in Tacoma — Graph

°F

Tacoma temperature yesterday

Maximum temperature yesterday: 57 °F (at 1:53 PM)
Minimum temperature yesterday: 49 °F (at 2:53 AM)
Average temperature yesterday: 52 °F

Past Weeks' High & Low Weather Summary

 TemperatureHumidityPressure
High69 °F (Mar 26, 5:53 PM)100% (Mar 23, 5:53 AM)30.36 "Hg (Mar 23, 5:53 AM)
Low41 °F (Mar 17, 5:53 AM)45% (Mar 26, 5:53 PM)29.60 "Hg (Mar 15, 3:53 PM)
Average50 °F81%30.10 "Hg
* Reported Mar 14 3:53 PM — Mar 29 3:53 PM, Tacoma, Weather by CustomWeather, © 2015

Note: Actual official high and low records may vary slightly from our data, if they occured in-between our weather recording intervals... More about our weather records

Advertising

Tacoma weather history for previous 24 hours

 ConditionsComfort  
Time TempWeatherWind HumidityBarometerVisibility
3:53 PM
Sun, Mar 29
61 °FOvercast.8 mph52%30.20 "Hg10 mi
2:53 PM60 °FMore clouds than sun.10 mph56%30.22 "Hg10 mi
1:53 PM60 °FMore clouds than sun.10 mph56%30.23 "Hg10 mi
12:53 PM58 °FMore clouds than sun.8 mph56%30.25 "Hg10 mi
11:53 AM56 °FScattered clouds.13 mph58%30.26 "Hg10 mi
10:53 AM53 °FScattered clouds.8 mph69%30.26 "Hg10 mi
9:53 AM51 °FPartly sunny.7 mph74%30.28 "Hg10 mi
8:53 AM48 °FBroken clouds.7 mph83%30.26 "Hg10 mi
7:53 AM48 °FPassing clouds.5 mph83%30.28 "Hg10 mi
6:53 AM47 °FOvercast.6 mph86%30.26 "Hg10 mi
5:53 AM47 °FPassing clouds.7 mph83%30.27 "Hg10 mi
4:53 AM48 °FOvercast.5 mph83%30.28 "Hg10 mi
3:53 AM47 °FPartly cloudy.5 mph83%30.28 "Hg10 mi
2:53 AM50 °FPassing clouds.3 mph74%30.31 "Hg10 mi
1:53 AM50 °FOvercast.3 mph74%30.32 "Hg10 mi
12:53 AM49 °FPassing clouds.3 mph80%30.34 "Hg10 mi
11:53 PM
Sat, Mar 28
50 °FOvercast.3 mph74%30.35 "Hg10 mi
10:53 PM50 °FPassing clouds.3 mph71%30.36 "Hg10 mi
9:53 PM51 °FPassing clouds.3 mph69%30.35 "Hg10 mi
8:53 PM52 °FMostly cloudy.5 mph69%30.34 "Hg10 mi
7:53 PM53 °FOvercast.6 mph64%30.34 "Hg10 mi
6:53 PM54 °FMostly cloudy.6 mph64%30.34 "Hg10 mi
5:53 PM56 °FPartly sunny.6 mph62%30.34 "Hg10 mi
Weather by CustomWeather, © 2015

See weather overviewHow to use our weather pages